Miscellaneous Local Product
Issued by NWS North Platte, NE

Home | Current Version | Previous Version | Graphics & Text | Print | Product List | Glossary On
Versions: 1 2 3 4 5 6 7 8 9 10 11 12 13 14 15 16 17 18 19 20 21 22 23 24 25 26 27 28 29 30 31 32 33 34 35 36 37 38 39 40 41 42 43 44 45 46 47 48 49 50
000
AXUS43 KLBF 100510
MISLBF


WESTERN AND NORTH CENTRAL NEBRASKA HOURLY WEATHER ROUNDUP
NATIONAL WEATHER SERVICE NORTH PLATTE NE
1100 PM CST FRI DEC 09 2016

NOTE: "FAIR" INDICATES FEW OR NO CLOUDS BELOW 12,000 FEET WITH NO
SIGNIFICANT WEATHER AND/OR OBSTRUCTIONS TO VISIBILITY.

NOTE: STATIONS NOT REPORTING VARIABLES SUCH AS SKY/WEATHER OR
PRESSURE ARE PROVIDED BY RAWS AND APRS NETWORKS AND ARE NOT UNDER
NATIONAL WEATHER SERVICE QUALITY CONTROL.

...OBSERVATIONS IN AND NEAR THE EASTERN PANHANDLE OF NEBRASKA...

CITY           SKY/WX    TMP DP  RH WIND       PRES   REMARKS
PINE RIDGE     LGT SNOW   4   1  88 E6        30.27F FOG     WCI  -7
CHADRON        LGT SNOW   4  -1  80 NE8       30.27S WCI  -9
ALLIANCE       CLOUDY     7   3  84 NE6       30.19F WCI  -3
SIDNEY         CLOUDY    19  12  74 SE3       30.17R
CRESCENT LAKE    N/A      9   5  83 E6          N/A  WCI  -1
$$

...OBSERVATIONS IN NORTHERN NEBRASKA AND FAR SOUTHERN SOUTH DAKOTA...

CITY           SKY/WX    TMP DP  RH WIND       PRES   REMARKS
WINNER         CLOUDY     7   3  84 NE5       30.44S WCI  -2
VALENTINE      CLOUDY     5   1  83 N7        30.38R WCI  -7
THEDFORD       FLURRIES  10   8  89 NE6       30.33S WCI   1
AINSWORTH      CLOUDY     9   7  90 NE7       30.36S WCI  -2
O`NEILL        FLURRIES  12   9  90 NE9       30.42S WCI  -1
ORD            CLOUDY    12   6  77 CALM      30.37S
BROKEN BOW     CLOUDY    15  11  83 CALM      30.32F
VALENTINE NWR    N/A      7   3  83 NE8         N/A  WCI  -5
BUTTE            N/A      6   3  89 NE8         N/A  WCI  -7
HALSEY           N/A      8   4  85 CALM        N/A
CHAMBERS         N/A     11   0  60 E3          N/A
EWING            N/A     13  10  88 E5G12       N/A  WCI   5
$$

...OBSERVATIONS IN SOUTHWEST NEBRASKA AND FAR NORTHEAST COLORADO...

CITY           SKY/WX    TMP DP  RH WIND       PRES   REMARKS
WRAY           FAIR      23  19  86 E6        30.19F WCI  16
HOLYOKE        FAIR      25  19  80 E8        30.19F WCI  16
IMPERIAL       CLOUDY    20  13  74 E8        30.23F WCI  10
OGALLALA       CLOUDY    21  15  78 NE6       30.24F WCI  13
NORTH PLATTE   CLOUDY    15  11  83 E6        30.30R WCI   6
MCCOOK         CLOUDY    15  10  80 E8        30.28F WCI   4
LEXINGTON      CLOUDY    15  10  82 E7        30.33S WCI   5
STAPLETON        N/A     14  10  85 CALM        N/A
GOTHENBURG       N/A     14  10  83 CALM        N/A
CALLAWAY         N/A     13  10  87 S6          N/A  WCI   4
$$

...OBSERVATIONS IN CENTRAL LINCOLN COUNTY AREA...

CITY           SKY/WX    TMP DP  RH WIND       PRES   REMARKS
N.P. AIRPORT   CLOUDY    15  11  83 E6        30.30R WCI   6
N.P. DOWNTOWN    N/A     16  12  83 CALM        N/A
N.P. SOUTHEAST   N/A     15  11  83 CALM        N/A
N.P. HILLCREST   N/A     16  12  85 SE3         N/A
$$

...SOME OBSERVATIONS FROM AROUND THE REGION...

CITY           SKY/WX    TMP DP  RH WIND       PRES   REMARKS
CHEYENNE       CLOUDY    27  20  75 S16       30.06F WCI  15
DENVER         CLOUDY    25  19  78 NE6       30.09R WCI  18
AKRON          CLOUDY    21  15  78 E3        30.14R
SCOTTSBLUFF    CLOUDY    14   5  67 E12       30.17F WCI   0
RAPID CITY     CLOUDY     2  -3  80 S9        30.28S WCI -13
BISMARCK       CLOUDY   -17 -21  82 CALM      30.52S
PIERRE         CLOUDY    -4 -10  75 N9        30.48S WCI -20
SIOUX FALLS    FLURRIES  12   9  87 NE6       30.48S WCI   3
OMAHA          CLOUDY    22  12  65 SE7       30.50S WCI  13
GRAND ISLAND   CLOUDY    18  14  84 SE7       30.40S WCI   9
KANSAS CITY    CLOUDY    27  11  51 SE9       30.50S WCI  18
WICHITA        CLOUDY    22  13  68 SE6       30.44S WCI  14
OKLAHOMA CITY  CLOUDY    33  16  49 SE12      30.45F WCI  24
DALLAS         PTCLDY    33  21  61 CALM      30.50S
AMARILLO       CLOUDY    30  28  92 SE13      30.23R WCI  20
DODGE CITY     CLOUDY    20  13  74 S12       30.33R WCI   8
HAYS           CLOUDY    17  12  80 SE7       30.37R WCI   8
GOODLAND       CLOUDY    25  20  81 S14       30.18F WCI  13
$$




USA.gov is the U.S. government's official web portal to all federal, state and local government web resources and services.